Regional Weather Roundup
Issued by NWS

Home | Current Version | Previous Version | Graphics & Text | Print | Product List | Glossary On
Versions: 1 2 3 4 5 6 7 8 9 10 11 12 13 14 15 16 17 18 19 20 21 22 23 24 25 26 27 28 29 30 31 32 33 34 35 36 37 38 39 40 41 42 43 44 45 46 47 48 49 50
908
ASUS43 KLMK 270102
RWRKY
KENTUCKY REGIONAL WEATHER ROUNDUP
NATIONAL WEATHER SERVICE LOUISVILLE KY
900 PM EDT FRI MAY 26 2017

NOTE "FAIR" INDICATES FEW OR NO CLOUDS BELOW 12,000 FEET
WITH NO SIGNIFICANT WEATHER AND/OR OBSTRUCTIONS TO VISIBILITY.

KYZ001>023-026-027-061>063-070>075-270200-
WESTERN AND SOUTH CENTRAL KENTUCKY

CITY           SKY/WX    TMP DP  RH WIND       PRES   REMARKS
PADUCAH        CLOUDY    73  67  81 W5        29.85R
HENDERSON      CLOUDY    77  65  66 W16       29.83R
OWENSBORO      CLOUDY    77  64  64 W9        29.83R
HOPKINSVILLE   CLOUDY    79  61  55 SW7       29.86R
BOWLING GREEN  CLOUDY    81  60  48 SW9       29.87R
GLASGOW        NOT AVBL
$$

KYZ024-025-028>034-038-045-046-053-270200-
NORTH CENTRAL KENTUCKY

CITY           SKY/WX    TMP DP  RH WIND       PRES   REMARKS
LOUISVILLE/SDF CLOUDY    79  62  56 SE9       29.84R
LOUISVILLE/LOU CLOUDY    79  63  57 SE3       29.85R
FORT KNOX      MOCLDY    76  64  66 S7        29.84R
$$

KYZ035>037-039>044-047>052-055>060-089>105-270200-
NORTHEAST KENTUCKY

CITY           SKY/WX    TMP DP  RH WIND       PRES   REMARKS
LEXINGTON      CLEAR     73  61  65 S6        29.89S
COVINGTON      CLOUDY    72  63  73 SE8       29.86F
FRANKFORT      MOCLDY    75  62  64 VRB3      29.87R
$$

KYZ054-064>069-076>088-106>120-270200-
SOUTHEAST KENTUCKY

CITY           SKY/WX    TMP DP  RH WIND       PRES   REMARKS
JACKSON        CLEAR     71  57  61 S3        29.93F
LONDON         CLEAR     73  59  61 S3        29.92F
SOMERSET       CLEAR     72  61  68 CALM      29.92R
MIDDLESBORO    CLEAR     70  62  75 CALM      29.96S
MONTICELLO     PTCLDY    73  61  65 NE8       29.92R
$$





USA.gov is the U.S. government's official web portal to all federal, state and local government web resources and services.